Terminal Aerodrome Forecast
Issued by NWS

Home | Current Version | Previous Version | Text Only | Print | Product List | Glossary On
Versions: 1 2 3 4 5 6 7 8 9 10 11 12 13 14 15 16 17 18
000
FTUS43 KIND 310500
TAFBMG
TAF
KBMG 310521Z 3106/0106 27003KT P6SM -RA OVC050
     FM311400 32013G20KT P6SM VCSH SCT015 BKN025
     FM311900 34016G28KT P6SM VCSH BKN020
     FM010100 33012KT P6SM -RASN BKN030
      AMD LTD TO CLD VIS AND WIND TIL 311300=

USA.gov is the U.S. government's official web portal to all federal, state and local government web resources and services.